User: anonymous   Login
Location: Unspecified
(0.0000°N, 0.0000°E)
Time: 14:15:42
(UTC+00:00)
Language:

USA 186 - Orbit

View from above orbital plane
View from above orbital plane
View from above satellite
View from above satellite

Ground track
Ground track

The orbit data is extracted from the following two-line orbital elements,

1 28888U 05042A   17081.80138937 0.00023500  00000-0  94790-4 0    07
2 28888  96.8698 121.8258 0135581  77.8371 282.3000 15.73428232    07
Epoch (UTC): 22 March 2017 19:14:00
Eccentricity: 0.0135581
inclination: 96.8698°
perigee height: 258 km
apogee height: 440 km
right ascension of ascending node: 121.8258°
argument of perigee: 77.8371°
revolutions per day: 15.73428232
mean anomaly at epoch: 282.3000°
orbit number at epoch: 0

The dashed part of the orbit path shows where the satellite is in the earth's shadow,  

DLR